This is the latest recevied weather packets stored in our database for station/object KB1JDX. If no packets are shown the sender has not sent any weather packets the latest 10 day(s).
| Time | Temp. | Humidity | Pressure | Rain* | Wind** | Luminosity | Snow |
|---|---|---|---|---|---|---|---|
| 1777918766 | 20.56° C | 34% | 1008.9 hPa | 0 mm | 2.24 m/s, 232° | - | - |
| 1777917634 | 20° C | 35% | 1009.1 hPa | 0 mm | 5.81 m/s, 230° | - | - |
| 1777916434 | 20° C | 35% | 1009.2 hPa | 0 mm | 0.89 m/s, 228° | - | - |
| 1777915233 | 20° C | 34% | 1009.1 hPa | 0 mm | 2.24 m/s, 237° | - | - |
| 1777915166 | 20° C | 34% | 1009.2 hPa | 0 mm | 2.24 m/s, 189° | - | - |
| 1777914035 | 20° C | 34% | 1009.3 hPa | 0 mm | 1.79 m/s, 188° | - | - |
| 1777912835 | 19.44° C | 35% | 1009.8 hPa | 0 mm | 1.34 m/s, 208° | - | - |
| 1777911634 | 19.44° C | 36% | 1009.9 hPa | 0 mm | 0.89 m/s, 190° | - | - |
| 1777911566 | 19.44° C | 35% | 1009.9 hPa | 0 mm | 0.45 m/s, 213° | - | - |
| 1777910435 | 18.89° C | 36% | 1010 hPa | 0 mm | 2.68 m/s, 281° | - | - |
| 1777909235 | 19.44° C | 36% | 1010.5 hPa | 0 mm | 5.81 m/s, 257° | - | - |
| 1777908035 | 18.89° C | 37% | 1010.7 hPa | 0 mm | 4.02 m/s, 296° | - | - |
| 1777907966 | 18.89° C | 36% | 1010.6 hPa | 0 mm | 0.45 m/s, 237° | - | - |
| 1777906833 | 18.33° C | 37% | 1010.8 hPa | 0 mm | 0.45 m/s, 252° | - | - |
| 1777905634 | 17.78° C | 37% | 1011 hPa | 0 mm | 1.34 m/s, 164° | - | - |
| 1777904433 | 17.78° C | 41% | 1011.1 hPa | 0 mm | 3.13 m/s, 211° | - | - |
| 1777904366 | 17.78° C | 41% | 1011.1 hPa | 0 mm | 1.34 m/s, 213° | - | - |
| 1777903234 | 17.22° C | 42% | 1011.2 hPa | 0 mm | 7.15 m/s, 205° | - | - |
| 1777902033 | 16.11° C | 45% | 1011.6 hPa | 0 mm | 3.58 m/s, 214° | - | - |
| 1777900833 | 15° C | 49% | 1011.5 hPa | 0 mm | 0.45 m/s, 312° | - | - |
| 1777900766 | 15° C | 48% | 1011.7 hPa | 0 mm | 0.45 m/s, 196° | - | - |
| 1777899634 | 13.33° C | 51% | 1011.7 hPa | 0 mm | 0 m/s | - | - |
| 1777898433 | 11.67° C | 59% | 1012.1 hPa | 0 mm | 0 m/s | - | - |
| 1777897233 | 10° C | 64% | 1012.3 hPa | 0 mm | 0 m/s | - | - |
| 1777897166 | 10° C | 65% | 1012.3 hPa | 0 mm | 0 m/s | - | - |
* Rain latest hour (hover to see other rain measurements)
** Current wind speed in m/s (hover to see current wind gust speed)